Weather History for Hamilton Island, QU

Change the Weather History Date:

Sunday, June 23, 2013

  Actual Average Record
Temperature  
Mean Temperature 66 °F -  
Max Temperature 68 °F - - ()
Min Temperature 64 °F - - ()
Cooling Degree Days 1    
Growing Degree Days 16 (Base 50)    
Moisture  
Dew Point 57 °F    
Average Humidity 72    
Maximum Humidity 83    
Minimum Humidity 56    
Precipitation  
Precipitation 0.00 in - - ()
Sea Level Pressure  
Sea Level Pressure 30.14 in    
Wind  
Wind Speed 17 mph ()    
Max Wind Speed 21 mph    
Max Gust Speed -    
T = Trace of Precipitation, MM = Missing Value Source: Averaged Metar Reports

Daily Weather History Graph

Daily Weather History Graph

Search for Another Location

Airport:

Trip Planner

Search our weather history database for the weather conditions in past years. The results will help you decide how hot, cold, wet, or windy it might be!

Date:

Astronomy

Jun. 23, 2013 Rise Set
Actual Time 6:39 AM AEST 5:33 PM AEST
Civil Twilight 6:15 AM AEST 5:57 PM AEST
Nautical Twilight 5:47 AM AEST 6:24 PM AEST
Astronomical Twilight 5:20 AM AEST 6:52 PM AEST
Moon 5:25 PM AEST (6/23) 5:57 AM AEST (6/23)
Length of Visible Light 11h 42m
Length of Day
10h 53m
Full, 100% of the Moon is Illuminated
Jun 23
Full
Jun 23
Full
Jun 30
Last Quarter
Jul 8
New
Jul 16
First Quarter

Hourly Weather History & Observations

Time (AEST) Temp. Dew Point Humidity Pressure Visibility Wind Dir Wind Speed Gust Speed Precip Events Conditions
12:00 AM 67 °F 56 °F 58% 30.13 in - SE 19.6 mph - -  
12:00 AM 66.2 °F 55.4 °F 68% 30.12 in - SE 19.6 mph - N/A   Unknown
12:30 AM 66.2 °F 55.4 °F 68% 30.12 in - ESE 19.6 mph - N/A   Unknown
1:00 AM 66.2 °F 59.0 °F 78% 30.12 in - SSE 16.1 mph - N/A   Unknown
1:30 AM 66.2 °F 59.0 °F 78% 30.12 in - SSE 18.4 mph - N/A   Unknown
2:00 AM 66.2 °F 59.0 °F 78% 30.09 in - SSE 18.4 mph - N/A   Unknown
2:30 AM 64.4 °F 57.2 °F 77% 30.09 in - SSE 18.4 mph - N/A   Unknown
3:00 AM 65 °F 58 °F 73% 30.12 in - SSE 18.4 mph - -  
3:00 AM 64.4 °F 59.0 °F 83% 30.12 in - SSE 18.4 mph - N/A   Unknown
3:30 AM 64.4 °F 57.2 °F 77% 30.12 in - SSE 19.6 mph - N/A   Unknown
4:00 AM 64.4 °F 57.2 °F 77% 30.12 in - SSE 18.4 mph - N/A   Unknown
4:30 AM 64.4 °F 57.2 °F 77% 30.12 in - SSE 19.6 mph - N/A   Unknown
5:00 AM 64.4 °F 55.4 °F 73% 30.12 in - SSE 19.6 mph - N/A   Unknown
5:30 AM 64.4 °F 55.4 °F 73% 30.12 in - SSE 18.4 mph - N/A   Unknown
6:00 AM 64 °F 55 °F 66% 30.15 in - SSE 18.4 mph - -  
6:00 AM 64.4 °F 55.4 °F 73% 30.15 in - SSE 18.4 mph - N/A   Unknown
6:30 AM 64.4 °F 57.2 °F 77% 30.15 in - SSE 18.4 mph - N/A   Unknown
7:00 AM 64.4 °F 57.2 °F 77% 30.15 in - SSE 18.4 mph - N/A   Unknown
7:30 AM 64.4 °F 59.0 °F 83% 30.15 in - SSE 18.4 mph - N/A   Unknown
8:00 AM 66.2 °F 57.2 °F 73% 30.18 in - SSE 20.7 mph - N/A   Unknown
8:30 AM 66.2 °F 59.0 °F 78% 30.18 in - SSE 19.6 mph - N/A   Unknown
9:00 AM 67 °F 58 °F 66% 30.20 in - SSE 19.6 mph - -  
9:00 AM 66.2 °F 59.0 °F 78% 30.18 in - SSE 19.6 mph - N/A   Unknown
9:30 AM 68.0 °F 59.0 °F 73% 30.18 in - SSE 19.6 mph - N/A   Unknown
10:00 AM 68.0 °F 59.0 °F 73% 30.18 in - SSE 19.6 mph - N/A   Unknown
10:30 AM 66.2 °F 57.2 °F 73% 30.18 in - SSE 19.6 mph - N/A   Unknown
11:00 AM 68.0 °F 60.8 °F 78% 30.18 in - SSE 20.7 mph - N/A   Unknown
11:30 AM 68.0 °F 60.8 °F 78% 30.18 in - SSE 19.6 mph - N/A   Unknown
12:00 PM 67 °F 60 °F 71% 30.17 in - SSE 20.7 mph - -  
12:00 PM 68.0 °F 59.0 °F 73% 30.15 in - SSE 20.7 mph - N/A   Unknown
12:30 PM 68.0 °F 59.0 °F 73% 30.15 in - SSE 19.6 mph - N/A   Unknown
1:00 PM 68.0 °F 62.6 °F 83% 30.15 in - SE 19.6 mph - N/A   Unknown
1:30 PM 68.0 °F 60.8 °F 78% 30.12 in - SE 18.4 mph - N/A   Unknown
2:00 PM 68.0 °F 60.8 °F 78% 30.12 in - SE 15.0 mph - N/A   Unknown
2:30 PM 68.0 °F 59.0 °F 73% 30.09 in - SE 15.0 mph - N/A   Unknown
3:00 PM 68 °F 59 °F 65% 30.12 in - SE 15.0 mph - -  
3:00 PM 68.0 °F 59.0 °F 73% 30.09 in - SE 15.0 mph - N/A   Unknown
3:30 PM 68.0 °F 57.2 °F 68% 30.09 in - ESE 13.8 mph - N/A   Unknown
4:00 PM 68.0 °F 59.0 °F 73% 30.09 in - ESE 16.1 mph - N/A   Unknown
4:30 PM 66.2 °F 57.2 °F 73% 30.09 in - ESE 16.1 mph - N/A   Unknown
5:00 PM 66.2 °F 57.2 °F 73% 30.12 in - ESE 16.1 mph - N/A   Unknown
5:30 PM 66.2 °F 57.2 °F 73% 30.12 in - ESE 15.0 mph - N/A   Unknown
6:00 PM 66 °F 58 °F 67% 30.13 in - ESE 16.1 mph - -  
6:00 PM 66.2 °F 57.2 °F 73% 30.12 in - ESE 16.1 mph - N/A   Unknown
6:30 PM 66.2 °F 57.2 °F 73% 30.12 in - ESE 15.0 mph - N/A   Unknown
7:00 PM 66.2 °F 57.2 °F 73% 30.12 in - SE 15.0 mph - N/A   Unknown
7:30 PM 66.2 °F 57.2 °F 73% 30.12 in - SE 16.1 mph - N/A   Unknown
8:00 PM 66.2 °F 55.4 °F 68% 30.15 in - SE 18.4 mph - N/A   Unknown
8:30 PM 66.2 °F 55.4 °F 68% 30.15 in - SE 17.3 mph - N/A   Unknown
9:00 PM 66 °F 54 °F 56% 30.17 in - SE 16.1 mph - -  
9:00 PM 66.2 °F 53.6 °F 64% 30.15 in - SE 16.1 mph - N/A   Unknown
9:30 PM 66.2 °F 53.6 °F 64% 30.15 in - SE 16.1 mph - N/A   Unknown
10:00 PM 66.2 °F 53.6 °F 64% 30.15 in - SE 15.0 mph - N/A   Unknown
10:30 PM 66.2 °F 53.6 °F 64% 30.15 in - SE 16.1 mph - N/A   Unknown
11:00 PM 66.2 °F 53.6 °F 64% 30.15 in - SE 15.0 mph - N/A   Unknown
11:30 PM 66.2 °F 55.4 °F 68% 30.15 in - SSE 16.1 mph - N/A   Unknown